Regional Weather Roundup
Issued by NWS

Home | Current Version | Previous Version | Text Only | Print | Product List | Glossary On
Versions: 1 2 3 4 5 6 7 8 9 10 11 12 13 14 15 16 17 18 19 20 21 22 23 24 25 26 27 28 29 30 31 32 33 34 35 36 37 38 39 40 41 42 43 44 45 46 47 48 49 50
000
ASUS43 KTOP 232159
RWRKS

WEATHER ROUNDUP FOR KANSAS
NATIONAL WEATHER SERVICE GOODLAND KS
500 PM CDT TUE AUG 23 2016

NOTE:  "FAIR" INDICATES FEW OR NO CLOUDS BELOW 12,000 FEET WITH NO
SIGNIFICANT WEATHER AND/OR OBSTRUCTIONS TO VISIBILITY.

KSZ001>006-013>018-027>032-041>047-232300-
NORTHWEST KANSAS

CITY           SKY/WX    TMP DP  RH WIND       PRES   REMARKS
GOODLAND       SUNNY     94  31  10 N13       29.91S
HAYS           SUNNY     99  55  23 SW16G25   29.79S HX  97
HILL CITY      SUNNY     94  59  31 SW8       29.80S
RUSSELL        TSTM      88  68  51 S24       29.79F
$$

KSZ061>065-074>080-084>089-232300-
SOUTHWEST KANSAS

CITY           SKY/WX    TMP DP  RH WIND       PRES   REMARKS
DODGE CITY     SUNNY     97  48  18 SW17G29   29.85S
ELKHART          N/A     95  49  20 W7          N/A
GARDEN CITY    SUNNY     96  50  20 SW12      29.85F
GREAT BEND     MOSUNNY   97  64  34 S25G31    29.80F HX  99
LIBERAL        SUNNY     97  52  21 W14       29.88F
$$

KSZ066>073-081>083-090>101-232300-
SOUTHEAST KANSAS

CITY           SKY/WX    TMP DP  RH WIND       PRES   REMARKS
CHANUTE        MOSUNNY   85  71  63 S23G33    29.97F
COFFEYVILLE    MOSUNNY   87  72  60 S21G29    29.98F
HUTCHINSON     MOSUNNY   92  70  48 S24G36    29.86F HX  97
NEWTON         MOSUNNY   87  73  62 S25G33    29.90S
PARSONS        SUNNY     86  72  62 S12G25    29.99F
WICHITA INTL   MOSUNNY   87  73  62 S21G30    29.89F
WICHITA JABRA  MOSUNNY   85  73  67 S23G32    29.90F
WINFIELD       CLOUDY    86  73  65 S22G29    29.94F
$$

KSZ007>012-019>026-033>040-048>060-102>105-232300-
NORTHEAST KANSAS

CITY           SKY/WX    TMP DP  RH WIND       PRES   REMARKS
CONCORDIA      SUNNY     87  69  54 S15       29.82F
EMPORIA        MOSUNNY   86  71  60 S24G36    29.92F
LAWRENCE       PTSUNNY   86  73  65 S20G28    29.93S
MANHATTAN      SUNNY     88  72  58 S21G33    29.85F
OLATHE IND     CLOUDY    84  73  69 S17G26    29.97S
OLATHE EXE     PTSUNNY   82  72  71 S14G25    29.97S
SALINA         MOSUNNY   92  71  50 S25G36    29.84S HX  98
TOPEKA BILLARD MOSUNNY   86  72  62 S17G28    29.92R
TOPEKA FORBES  MOSUNNY   86  73  65 S21G28    29.92S
$$




USA.gov is the U.S. government's official web portal to all federal, state and local government web resources and services.